Location: Strada George Coșbuc
(47.6577°N, 23.5639°E)
Time: 01:14:00
(UTC+03:00)

ISS - Pass Details

Date: 19 September 2017
Orbit: 401 x 407 km, 51.6° (Epoch: 23 September)

Event Time Altitude Azimuth Distance (km) Brightness Sun altitude
Exits shadow 04:32:51 21° 99° (E) 967 -1.5 -25.4°
Drops below altitude 10° 04:34:07 10° 103° (ESE) 1,468 -0.5 -25.2°
Sets 04:36:12 0° 106° (ESE) 2,326 0.6 -24.9°
